Regional Weather Roundup
Issued by NWS

Home | Current Version | Previous Version | Graphics & Text | Print | Product List | Glossary On
Versions: 1 2 3 4 5 6 7 8 9 10 11 12 13 14 15 16 17 18 19 20 21 22 23 24 25 26 27 28 29 30 31 32 33 34 35 36 37 38 39 40 41 42 43 44 45 46 47 48 49 50
000
ASUS43 KIND 242200
RWRIN

WEATHER ROUNDUP FOR INDIANA
NATIONAL WEATHER SERVICE INDIANAPOLIS IN
600 PM EDT SUN SEP 24 2017

NOTE: "FAIR" INDICATES FEW OR NO CLOUDS BELOW 12,000 FEET WITH NO
SIGNIFICANT WEATHER AND/OR OBSTRUCTIONS TO VISIBILITY.

* - STATION DOES NOT REPORT WEATHER SUCH AS PRECIPITATION OR FOG.

+ - STATION NOT QUALITY CONTROLLED BY THE NATIONAL WEATHER SERVICE.
    USE DATA WITH CAUTION...ESPECIALLY DEWPOINT AND RELATIVE
    HUMIDITY OBSERVATIONS.

INZ001>003-010>013-019-020-242300-
NORTHWEST INDIANA

CITY           SKY/WX    TMP DP  RH WIND       PRES   REMARKS
GARY /AIRPORT/ MOSUNNY   84  61  45 E10       30.02S

$$

LMZ046-743>745-242300-
SOUTHERN LAKE MICHIGAN

STATION/POSITION TIME  TEMP    WIND        PRES    WAVE
                       AIR SEA DIR/SP/G            HT
                 (UTC) (F)     (DEG/KT/KT) (MB)    (FT)
BURNS HARBOR     2140   79      50/  4/  6 1016.6F
MICHIGAN CITY    2130   79      30/  7/  8   N/A
5NW MICH CITY    2150   78 73   50/  8/  8   N/A     1

$$

INZ004-005-014>016-021>024-242300-
NORTH CENTRAL INDIANA

CITY           SKY/WX    TMP DP  RH WIND       PRES   REMARKS
GOSHEN         SUNNY     88  58  36 E8        30.05S
SOUTH BEND     SUNNY     88  55  32 SE9       30.04F

$$

INZ006>009-017-018-025>027-242300-
NORTHEAST INDIANA

CITY           SKY/WX    TMP DP  RH WIND       PRES   REMARKS
FORT WAYNE     MOSUNNY   87  56  34 SE9       30.05F
KENDALLVILLE + SUNNY     86  60  40 E5        30.07S

$$

INZ028-029-035-036-043>045-051>053-242300-
WEST CENTRAL INDIANA

CITY           SKY/WX    TMP DP  RH WIND       PRES   REMARKS
LAFAYETTE      SUNNY     88  52  29 SE7       30.00S
TERRE HAUTE    MOSUNNY   87  56  34 E3        30.00S

$$

INZ030>032-037>040-046>048-054>057-064-065-242300-
CENTRAL INDIANA

CITY           SKY/WX    TMP DP  RH WIND       PRES   REMARKS
COLUMBUS       SUNNY     90  45  20 SE7       30.02F
INDIANAPOLIS   MOSUNNY   89  55  31 SE8       30.02F
-EAGLE CREEK   SUNNY     89  51  27 SE9G24    30.02S
KOKOMO +       SUNNY     86  59  39 SE7       30.05S
MT COMFORT *+  SUNNY     90  54  29 SE5       30.04S
SHELBYVILLE    SUNNY     90  52  27 SE8       30.03S

$$

INZ033-034-041-042-049-050-058-059-242300-
EAST CENTRAL INDIANA

CITY           SKY/WX    TMP DP  RH WIND       PRES   REMARKS
MUNCIE         SUNNY     89  51  27 SE7       30.05S
RICHMOND +     SUNNY     86  52  30 SE6       30.08S

$$

INZ060-061-067>069-081>083-085>088-242300-
SOUTHWEST INDIANA

CITY           SKY/WX    TMP DP  RH WIND       PRES   REMARKS
EVANSVILLE     SUNNY     88  62  41 E5        29.98S
HUNTINGBURG +  SUNNY     87  67  51 E8        29.99F

$$

INZ062-063-066-070>080-084-089>092-242300-
SOUTH CENTRAL AND SOUTHEAST INDIANA

CITY           SKY/WX    TMP DP  RH WIND       PRES   REMARKS
BLOOMINGTON    MOSUNNY   89  54  30 SE9       30.02S
MADISON *+     SUNNY     86  50  28 E5        30.05F
SEYMOUR +      SUNNY     90  55  31 SE6       30.02F

$$





USA.gov is the U.S. government's official web portal to all federal, state and local government web resources and services.